Theta_e
327 324 323 322 322 319 318 318 318 318 317 317 317 316 315 314 313 312 312 311 310 310 310 310 310 310 310 309 309 309 310 312 314 314 326 342 343 345 342 340 339 336 331
325 324 323 322 322 319 318 319 319 319 319 318 317 317 316 315 314 314 314 314 314 312 311 311 311 311 312 312 313 313 310 309 308 310 312 327 341 342 342 340 341 341 335
325 324 323 322 322 320 318 319 319 319 319 319 318 318 318 317 316 315 315 317 317 316 316 314 313 312 310 310 311 312 313 314 309 308 308 311 336 341 341 340 340 341 344
326 324 324 322 322 319 318 319 319 319 319 319 319 320 320 320 319 317 316 317 319 320 320 320 322 319 315 312 310 310 312 314 316 310 308 308 320 340 341 341 340 340 341
328 324 324 323 321 320 319 319 319 319 319 320 320 321 321 321 321 320 317 316 318 323 324 324 323 325 325 324 317 312 313 314 314 317 310 307 309 337 338 334 339 340 340
331 325 324 323 322 321 320 320 320 319 319 320 321 321 321 322 322 322 321 317 316 323 325 326 324 326 327 325 325 319 328 326 318 316 318 308 308 330 332 330 334 339 340
332 331 327 323 323 322 321 320 320 319 320 320 320 321 321 322 322 322 322 321 318 321 327 325 323 326 326 329 331 328 324 328 329 319 320 315 311 322 327 331 338 339 339
332 331 332 330 323 322 321 320 320 319 319 320 320 321 321 322 322 322 322 322 321 324 326 324 321 320 319 323 324 329 329 324 330 329 322 323 326 327 326 326 330 336 338
334 332 332 333 327 321 321 321 321 320 319 319 320 320 321 321 321 321 322 322 323 326 328 327 326 324 321 320 319 319 322 328 326 324 321 324 330 331 328 328 330 327 328
335 334 334 334 333 330 322 321 321 320 319 319 320 320 320 321 321 321 321 322 324 326 329 329 329 329 328 324 322 321 319 319 321 325 323 320 330 332 331 331 330 329 327
335 335 335 334 334 334 331 326 321 321 320 319 319 320 320 321 321 322 322 323 328 326 330 331 331 330 329 327 323 322 320 317 317 318 323 320 328 332 333 332 332 330 330
332 333 334 334 334 334 334 333 328 321 321 320 320 319 320 321 322 322 323 326 330 330 332 332 332 331 329 328 327 327 320 317 319 322 317 321 324 332 331 331 329 329 331
329 329 329 332 334 334 334 334 334 328 322 321 321 320 320 320 321 322 323 330 332 332 333 334 333 330 330 329 328 324 323 328 328 328 328 321 323 328 330 330 330 331 330
331 330 329 328 330 333 334 334 334 334 332 326 321 321 321 320 320 321 323 329 330 330 333 334 332 331 330 329 328 328 328 328 328 328 327 321 327 329 329 328 329 329 329
331 330 330 328 328 328 330 331 334 335 335 333 326 322 322 322 322 321 324 332 334 332 332 334 332 331 331 330 330 328 328 328 328 327 326 328 328 329 329 329 329 328 329
330 330 330 329 328 327 327 328 330 334 335 336 334 329 324 328 327 324 330 333 338 332 335 334 332 331 330 330 330 328 328 327 327 326 326 327 328 329 328 330 330 328 329
330 330 329 329 328 328 327 328 331 334 335 336 336 337 338 337 331 334 335 334 331 333 335 333 332 332 330 330 330 331 328 328 327 327 326 327 330 330 330 330 329 328 328
328 329 328 329 329 328 327 328 333 335 336 336 338 339 340 339 338 337 335 333 331 333 335 334 334 332 331 331 330 329 328 328 327 327 328 327 326 330 330 328 326 327 326
328 327 328 329 329 329 328 331 333 335 337 338 340 341 341 340 338 335 334 332 332 331 334 334 332 332 331 330 328 329 328 328 328 326 325 326 325 328 329 328 328 325 320
327 327 327 329 329 329 330 333 336 339 340 341 342 342 340 336 334 332 333 333 333 331 331 332 331 330 330 328 328 328 328 327 327 326 326 326 326 327 327 329 329 329 321
328 327 327 329 330 329 331 336 339 342 342 342 339 337 335 335 333 333 333 334 332 332 332 330 329 330 328 329 327 327 327 326 325 325 325 327 327 327 327 328 327 330 327
328 329 329 330 331 331 334 337 340 342 342 342 340 338 337 333 333 332 333 334 334 331 329 329 329 329 329 328 327 327 326 324 323 324 325 326 325 327 328 326 326 328 329
328 328 330 331 332 334 338 341 342 341 340 340 341 338 334 333 332 333 334 332 331 327 329 329 329 328 328 327 326 327 324 324 323 323 325 326 326 326 327 327 327 328 329
328 331 332 332 333 338 342 342 341 339 340 337 333 333 333 332 333 334 334 332 329 329 329 328 327 327 326 325 326 326 324 326 325 326 326 327 327 325 326 327 328 328 327
330 332 333 333 337 339 340 339 337 334 334 335 335 334 334 334 334 333 331 330 329 329 327 327 326 324 325 325 326 325 324 325 327 327 325 326 326 327 326 326 326 329 327
334 334 333 333 337 339 338 337 335 337 336 334 334 333 332 332 331 331 328 328 329 327 326 325 326 327 325 325 325 325 325 324 326 327 326 325 324 323 325 326 326 326 327
Wind_Speed
19 18 15 14 13 11 10 9 8 8 8 8 8 8 7 6 4 3 2 3 4 5 6 7 8 8 9 9 10 12 14 15 14 13 10 9 7 7 4 3 5 6 6
19 19 17 16 15 13 12 12 10 9 8 7 7 7 7 5 4 3 2 1 2 4 5 6 7 7 8 9 9 9 10 12 13 15 15 12 9 9 9 9 8 8 7
15 19 18 16 16 15 14 14 13 11 9 8 7 5 5 4 4 3 2 1 1 2 4 6 6 6 7 9 9 9 8 9 11 12 15 14 12 10 11 11 12 10 9
14 17 17 17 16 16 16 15 14 13 12 11 9 6 4 2 3 4 4 3 2 2 4 6 7 6 6 7 8 9 9 8 8 9 12 15 15 12 11 10 11 11 10
15 16 17 17 17 17 17 16 16 16 15 13 11 8 5 2 1 3 4 5 5 4 5 6 7 7 7 7 7 8 8 8 8 7 8 12 16 16 14 9 10 10 12
15 16 16 18 19 18 19 20 20 20 19 16 13 11 8 5 2 2 4 5 5 6 6 8 9 8 8 10 9 8 8 8 8 7 7 11 16 18 17 12 13 11 11
17 16 16 20 21 21 22 23 24 23 22 19 16 13 11 8 6 4 5 7 6 6 7 9 10 11 12 11 13 11 12 11 9 7 7 11 15 14 14 8 12 13 12
9 12 16 19 24 25 24 25 26 25 24 22 20 17 15 12 9 7 7 8 7 6 8 10 10 11 12 13 15 15 15 14 12 9 8 13 12 11 12 9 10 10 12
18 17 17 20 24 27 26 27 28 28 27 24 23 21 18 15 13 10 9 9 10 7 6 8 9 10 12 13 14 15 17 17 15 13 11 13 15 11 13 14 10 9 13
22 25 24 24 25 28 29 30 30 30 30 27 26 25 22 19 17 14 12 11 11 9 7 8 8 11 13 14 15 15 15 17 18 13 13 14 18 15 14 17 15 12 10
25 27 33 32 30 31 30 31 33 33 32 31 30 29 26 25 21 17 14 13 11 11 8 8 8 10 12 14 14 15 14 15 15 15 14 15 18 16 11 14 15 13 11
25 29 30 30 32 33 34 34 35 37 37 36 36 34 31 28 24 19 16 14 13 10 10 11 11 11 10 8 9 13 13 9 9 9 12 16 19 19 14 11 14 15 15
17 14 18 23 32 36 36 36 37 39 40 40 39 37 35 31 26 23 18 16 15 11 13 13 13 12 9 9 8 5 5 6 8 8 12 17 20 21 18 17 17 17 15
23 23 22 20 21 28 33 35 39 41 40 41 42 40 38 34 30 26 20 19 17 14 17 15 15 13 11 10 12 11 9 8 9 8 8 15 19 19 19 18 15 16 17
25 25 26 22 18 20 28 32 38 40 40 37 39 40 38 36 32 26 21 20 17 17 19 17 16 15 15 14 12 16 14 12 12 13 11 12 15 17 20 22 16 14 15
31 30 26 22 19 19 22 26 30 35 38 37 33 32 33 31 31 25 20 18 20 20 18 18 17 18 18 18 18 16 17 15 17 14 14 14 18 19 19 22 17 16 15
29 30 26 19 20 22 25 24 26 31 38 39 31 26 26 23 20 19 18 18 21 19 19 18 20 20 20 21 22 21 22 18 17 19 18 16 13 14 15 18 17 15 16
27 23 22 20 21 22 24 24 25 29 37 37 29 25 24 20 19 18 18 18 17 21 21 21 22 23 22 22 25 24 22 19 17 19 16 19 14 15 16 17 16 16 16
24 24 26 22 19 21 23 24 25 30 35 30 25 22 23 22 20 16 20 15 17 21 24 24 23 23 22 22 21 21 23 22 18 18 20 19 17 17 14 12 13 13 16
27 30 26 20 21 20 22 25 28 31 30 26 24 23 22 19 16 18 15 16 17 17 20 23 23 22 20 18 17 19 19 22 21 21 17 20 17 18 17 13 13 13 16
24 28 24 21 21 23 25 31 32 29 25 23 20 21 21 20 18 14 15 16 17 18 20 21 20 20 19 16 16 17 17 18 20 21 20 18 18 20 18 16 13 12 15
24 20 21 21 22 24 27 30 34 32 24 21 20 19 18 13 13 15 16 17 17 21 22 21 20 18 16 16 16 15 9 15 18 19 18 19 18 18 20 19 17 14 14
24 22 22 24 23 21 23 24 24 24 21 21 21 19 17 16 16 17 17 17 18 20 20 16 16 15 15 15 15 11 5 7 7 14 18 16 18 18 15 15 18 17 15
25 22 22 20 19 19 21 20 20 20 23 20 15 15 16 17 19 19 20 17 17 17 17 14 14 12 13 14 16 17 12 2 2 5 16 16 17 17 16 15 20 20 19
23 23 20 17 18 18 17 15 18 19 16 14 17 13 13 15 17 15 17 18 15 15 12 9 9 10 12 14 15 14 16 13 6 4 7 17 18 17 20 20 18 20 19
24 22 18 17 20 19 18 20 18 19 19 14 15 15 13 13 14 15 15 11 11 8 7 7 8 10 10 12 15 15 14 20 13 10 9 10 16 15 15 17 18 17 20
Wind_Direction
170 176 169 168 173 171 166 161 154 144 131 124 118 116 111 105 104 123 185 228 246 245 238 237 238 241 243 240 237 238 242 242 238 239 229 221 217 212 216 213 200 188 177
155 170 177 177 178 178 173 168 166 156 144 138 134 130 123 111 91 79 68 238 239 256 265 262 252 249 255 257 253 242 237 238 235 233 233 222 217 218 215 219 210 202 177
158 172 181 183 183 184 181 176 171 165 163 162 155 140 115 95 86 90 90 101 265 273 277 277 274 267 262 258 256 256 244 239 239 230 226 220 213 205 207 216 223 211 205
172 179 185 186 189 190 188 183 178 178 180 182 176 164 141 94 41 27 15 4 348 280 270 275 282 286 274 265 257 250 252 246 242 237 222 216 205 204 208 208 222 220 217
188 188 189 192 193 196 195 193 191 191 192 193 190 186 183 175 48 19 352 336 324 285 266 263 272 274 280 279 269 253 249 256 248 235 228 215 201 196 207 219 228 229 217
196 193 200 201 201 202 204 202 201 201 202 201 202 203 210 215 229 328 333 323 312 287 273 268 272 276 271 279 272 258 254 257 261 248 224 214 196 196 209 220 219 230 223
203 200 210 213 213 210 210 209 208 208 208 207 211 216 223 230 238 266 302 317 314 299 275 266 268 261 266 260 267 264 255 256 255 249 228 201 192 194 202 220 221 227 227
224 230 227 224 223 216 214 215 216 216 216 213 216 219 226 233 241 257 286 304 309 300 287 274 278 276 271 264 265 261 257 257 249 253 234 213 193 194 192 231 239 239 232
223 237 235 235 224 224 223 224 223 222 222 221 223 224 226 231 240 250 272 292 297 286 290 276 282 282 277 272 272 267 258 257 258 245 238 223 208 209 205 214 221 242 249
225 229 234 239 237 232 227 231 230 228 227 226 229 231 232 233 238 245 257 274 277 279 280 289 293 293 281 273 274 272 263 257 253 249 235 227 216 216 216 216 221 222 247
230 238 235 231 236 241 236 234 233 233 231 231 233 233 234 236 239 244 255 271 262 278 279 285 294 305 292 274 273 272 261 256 255 250 234 224 218 219 212 218 222 236 242
242 240 241 238 240 244 245 241 238 234 232 232 234 234 236 239 242 248 253 260 260 279 276 278 288 296 285 286 285 269 256 252 250 257 237 220 217 220 218 226 227 245 248
266 265 252 242 236 240 245 246 243 236 235 236 239 237 239 241 241 247 251 251 258 266 273 276 277 286 279 272 274 278 222 244 243 292 246 217 215 220 225 223 232 241 250
269 273 279 275 241 239 244 249 249 243 242 239 241 241 239 240 242 245 249 253 257 265 268 268 263 273 262 272 266 256 254 257 255 269 254 214 213 222 225 230 230 233 242
271 260 272 257 262 259 248 254 248 248 244 244 243 244 242 244 246 244 248 250 257 266 264 259 256 275 266 261 277 255 248 251 258 264 256 237 224 223 235 232 232 232 234
284 257 253 248 267 274 277 270 263 255 246 245 242 243 243 246 247 242 242 252 256 255 254 257 261 281 279 258 263 271 256 253 252 250 259 254 251 241 238 225 235 235 233
291 259 237 254 279 284 276 275 267 256 246 245 241 235 234 238 227 223 237 248 255 256 260 261 260 272 267 268 267 267 255 244 250 244 253 256 256 222 219 223 242 239 235
277 234 252 263 272 275 270 270 259 252 246 243 242 234 229 228 221 227 240 249 261 255 256 251 258 262 262 263 266 261 244 244 235 238 247 245 246 232 220 229 237 243 229
249 245 255 257 264 275 265 258 252 248 239 240 237 228 225 224 213 228 235 258 266 254 252 258 263 263 265 267 259 245 243 238 241 242 243 247 244 229 225 241 234 240 215
250 255 250 262 264 263 250 246 237 232 231 228 224 222 216 209 222 240 243 262 272 255 258 260 268 272 272 265 252 242 242 242 247 248 250 240 229 227 231 227 234 232 217
256 244 252 267 256 254 237 224 221 211 202 204 203 208 218 224 231 241 256 271 276 278 276 272 271 268 261 248 240 239 235 242 242 242 243 228 223 226 222 225 234 238 231
252 249 252 255 250 243 234 221 219 213 208 215 218 229 244 229 242 257 265 274 275 280 276 270 268 260 247 236 231 234 231 244 239 236 229 223 216 209 215 228 232 237 222
244 249 248 237 231 233 221 209 205 212 219 227 227 228 227 243 250 255 259 270 277 274 271 268 257 248 244 234 226 225 213 234 234 223 217 217 204 211 222 224 224 227 222
237 231 226 225 224 211 204 202 201 209 202 199 204 213 222 239 246 250 261 269 275 267 266 263 250 237 228 222 221 227 227 196 168 196 215 213 214 218 227 236 234 237 225
220 215 212 213 203 193 190 193 185 180 188 207 214 210 218 227 241 255 273 279 265 265 258 245 232 220 221 220 229 239 229 220 228 239 222 212 216 224 230 237 240 230 230
202 203 200 189 185 178 178 176 176 189 191 193 197 206 213 236 262 273 278 269 261 247 246 232 230 231 237 235 236 239 234 211 222 233 224 208 221 220 224 225 226 227 226